Watauga Observed Data For Previous 48 Hours

Caption
Day and Hour Reservoir Elevation (behind dam)* Tailwater Elevation (below dam)* Average Hourly Discharge*
1/15/2018 2 AM EST 1,952.83 1,650.22 1,229
1/15/2018 3 AM EST 1,952.83 1,650.22 1,247
1/15/2018 4 AM EST 1,952.83 1,650.23 1,246
1/15/2018 5 AM EST 1,952.83 1,650.21 1,248
1/15/2018 6 AM EST 1,952.83 1,650.21 1,245
1/15/2018 7 AM EST 1,952.83 1,650.24 1,248
1/15/2018 8 AM EST 1,952.83 1,650.22 1,249
1/15/2018 9 AM EST 1,952.83 1,650.21 1,246
1/15/2018 10 AM EST 1,952.82 1,650.22 1,245
1/15/2018 11 AM EST 1,952.82 1,650.21 1,246
1/15/2018 12 PM EST 1,952.80 1,650.21 1,246
1/15/2018 1 PM EST 1,952.80 1,650.21 1,247
1/15/2018 2 PM EST 1,952.79 1,650.19 1,246
1/15/2018 3 PM EST 1,952.79 1,650.21 1,245
1/15/2018 4 PM EST 1,952.77 1,650.19 1,247
1/15/2018 5 PM EST 1,952.77 1,650.21 1,245
1/15/2018 6 PM EST 1,952.77 1,650.21 1,248
1/15/2018 7 PM EST 1,952.75 1,650.21 1,249
1/15/2018 8 PM EST 1,952.74 1,650.21 1,246
1/15/2018 9 PM EST 1,952.74 1,650.21 1,244
1/15/2018 10 PM EST 1,952.74 1,650.21 1,248
1/15/2018 11 PM EST 1,952.74 1,650.22 1,248
1/16/2018 12 AM EST 1,952.74 1,650.21 1,247
1/16/2018 1 AM EST 1,952.72 1,650.21 1,247
1/16/2018 2 AM EST 1,952.72 1,650.24 1,249
1/16/2018 3 AM EST 1,952.71 1,650.21 1,244
1/16/2018 4 AM EST 1,952.71 1,650.21 1,248
1/16/2018 5 AM EST 1,952.71 1,650.21 1,247
1/16/2018 6 AM EST 1,952.70 1,650.22 1,247
1/16/2018 7 AM EST 1,952.70 1,650.20 1,244
1/16/2018 8 AM EST 1,952.68 1,650.21 1,245
1/16/2018 9 AM EST 1,952.66 1,650.22 1,245
1/16/2018 10 AM EST 1,952.65 1,650.22 1,250
1/16/2018 11 AM EST 1,952.65 1,650.22 1,250
1/16/2018 12 PM EST 1,952.65 1,650.21 1,245
1/16/2018 1 PM EST 1,952.65 1,650.18 1,247
1/16/2018 2 PM EST 1,952.63 1,650.18 1,248
1/16/2018 3 PM EST 1,952.63 1,650.18 1,249
1/16/2018 4 PM EST 1,952.62 1,650.19 1,243
1/16/2018 5 PM EST 1,952.60 1,650.20 1,243
1/16/2018 6 PM EST 1,952.59 1,650.24 1,246
1/16/2018 7 PM EST 1,952.59 1,650.41 1,245
1/16/2018 8 PM EST 1,952.58 1,650.30 1,246
1/16/2018 9 PM EST 1,952.56 1,650.22 1,245
1/16/2018 10 PM EST 1,952.56 1,650.22 1,242
1/16/2018 11 PM EST 1,952.55 1,650.24 1,246
1/17/2018 12 AM EST 1,952.53 1,650.34 1,246
1/17/2018 1 AM EST 1,952.53 1,650.41 1,244
1/17/2018 2 AM EST 1,952.52 1,650.29 1,248
1/17/2018 3 AM EST 1,952.51 1,650.23 1,248
1/17/2018 4 AM EST 1,952.51 1,650.22 1,246
1/17/2018 5 AM EST 1,952.51 1,650.22 1,244
1/17/2018 6 AM EST 1,952.50 1,650.23 1,248
1/17/2018 7 AM EST 1,952.49 1,650.29 1,247
1/17/2018 8 AM EST 1,952.49 1,650.28 1,246
1/17/2018 9 AM EST 1,952.47 1,650.24 1,248
1/17/2018 10 AM EST 1,952.46 1,650.22 1,247
1/17/2018 11 AM EST 1,952.44 1,650.24 1,243
1/17/2018 12 PM EST 1,952.42 1,650.31 1,244
1/17/2018 1 PM EST 1,952.42 1,650.30 1,249
1/17/2018 2 PM EST 1,952.42 1,650.22 1,246
1/17/2018 3 PM EST 1,952.41 1,650.21 1,243
1/17/2018 4 PM EST 1,952.41 1,650.22 1,250
1/17/2018 5 PM EST 1,952.39 1,650.26 1,248
1/17/2018 6 PM EST 1,952.39 1,650.31 1,245
1/17/2018 7 PM EST 1,952.38 1,650.24 1,248
1/17/2018 8 PM EST 1,952.37 1,650.24 1,244
1/17/2018 9 PM EST 1,952.35 1,650.24 1,247
1/17/2018 10 PM EST 1,952.35 1,650.24 1,246

Elevations are in feet above sea level. Discharges are in cubic feet per second and are reported at the end of the hour.